| time (UTC) | temp F | wind direction | speed MPH | gust MPH | rain 1hr in | rain 24hr in | rain mn in | humidity % | barometer mb |
| 20260505181123 | 50 | 293 | 3.0 | 7.0 | 0.00 | 0.00 | 0.00 | 41 | 1049.5 |
| 20260505180619 | 50 | 314 | 4.0 | 6.0 | 0.00 | 0.00 | 0.00 | 42 | 1049.4 |
| 20260505180117 | 50 | 262 | 2.0 | 8.0 | 0.00 | 0.00 | 0.00 | 42 | 1049.5 |
| 20260505175613 | 49 | 255 | 2.0 | 2.0 | 0.00 | 0.00 | 0.00 | 42 | 1049.5 |
| 20260505175109 | 49 | 222 | 5.0 | 6.0 | 0.00 | 0.00 | 0.00 | 41 | 1049.4 |
| 20260505174606 | 50 | 294 | 2.0 | 3.0 | 0.00 | 0.00 | 0.00 | 44 | 1049.3 |
| 20260505174102 | 51 | 181 | 2.0 | 6.0 | 0.00 | 0.00 | 0.00 | 41 | 1049.4 |
| 20260505173554 | 50 | 195 | 1.0 | 4.0 | 0.00 | 0.00 | 0.00 | 38 | 1049.5 |
| 20260505173051 | 50 | 319 | 4.0 | 9.0 | 0.00 | 0.00 | 0.00 | 42 | 1049.5 |
| 20260505172548 | 50 | 303 | 5.0 | 7.0 | 0.00 | 0.00 | 0.00 | 40 | 1049.5 |
| 20260505172044 | 50 | 233 | 1.0 | 3.0 | 0.00 | 0.00 | 0.00 | 48 | 1049.4 |
| 20260505171545 | 49 | 276 | 3.0 | 6.0 | 0.00 | 0.00 | 0.00 | 42 | 1049.5 |
| 20260505171042 | 49 | 298 | 1.0 | 2.0 | 0.00 | 0.00 | 0.00 | 45 | 1049.3 |
| 20260505170539 | 49 | 197 | 0.0 | 3.0 | 0.00 | 0.00 | 0.00 | 44 | 1049.4 |
| 20260505170035 | 49 | 239 | 2.0 | 7.0 | 0.00 | 0.00 | 0.00 | 45 | 1049.5 |
| 20260505165530 | 49 | 339 | 4.0 | 6.0 | 0.00 | 0.00 | 0.00 | 43 | 1049.5 |
| 20260505165026 | 48 | 211 | 2.0 | 10.0 | 0.00 | 0.00 | 0.00 | 45 | 1049.4 |
| 20260505164522 | 48 | 270 | 2.0 | 4.0 | 0.00 | 0.00 | 0.00 | 44 | 1049.6 |
| 20260505164020 | 48 | 299 | 5.0 | 7.0 | 0.00 | 0.00 | 0.00 | 44 | 1049.5 |
| 20260505163519 | 48 | 115 | 2.0 | 7.0 | 0.00 | 0.00 | 0.00 | 45 | 1049.4 |
| 20260505163015 | 48 | 171 | 1.0 | 3.0 | 0.00 | 0.00 | 0.00 | 49 | 1049.6 |
| 20260505162508 | 49 | 308 | 1.0 | 9.0 | 0.00 | 0.00 | 0.00 | 44 | 1049.3 |
| 20260505162005 | 48 | 314 | 2.0 | 4.0 | 0.00 | 0.00 | 0.00 | 44 | 1049.4 |
| 20260505161456 | 49 | 180 | 4.0 | 4.0 | 0.00 | 0.00 | 0.00 | 45 | 1049.5 |
| 20260505160953 | 50 | 216 | 3.0 | 7.0 | 0.00 | 0.00 | 0.00 | 43 | 1049.5 |
| 20260505160451 | 49 | 297 | 3.0 | 6.0 | 0.00 | 0.00 | 0.00 | 44 | 1049.5 |
| 20260505152922 | 48 | 292 | 2.0 | 4.0 | 0.00 | 0.00 | 0.00 | 45 | 1049.3 |
| 20260505152420 | 49 | 269 | 2.0 | 3.0 | 0.00 | 0.00 | 0.00 | 45 | 1049.3 |
| 20260505151919 | 50 | 174 | 2.0 | 3.0 | 0.00 | 0.00 | 0.00 | 44 | 1049.4 |
| 20260505151415 | 50 | 9 | 3.0 | 4.0 | 0.00 | 0.00 | 0.00 | 45 | 1049.2 |
| 20260505150913 | 50 | 39 | 2.0 | 4.0 | 0.00 | 0.00 | 0.00 | 44 | 1049.2 |
| 20260505150410 | 49 | 216 | 1.0 | 3.0 | 0.00 | 0.00 | 0.00 | 47 | 1049.3 |
| 20260505140340 | 48 | 167 | 3.0 | 4.0 | 0.00 | 0.00 | 0.00 | 44 | 1048.7 |
| 20260505130303 | 44 | 326 | 4.0 | 4.0 | 0.00 | 0.00 | 0.00 | 53 | 1048.8 |
| 20260505124754 | 42 | 231 | 1.0 | 2.0 | 0.00 | 0.00 | 0.00 | 58 | 1048.7 |
| 20260505124250 | 42 | 263 | 1.0 | 2.0 | 0.00 | 0.00 | 0.00 | 61 | 1048.7 |
| 20260505123746 | 42 | 206 | 1.0 | 2.0 | 0.00 | 0.00 | 0.00 | 59 | 1048.4 |
| 20260505123243 | 42 | 225 | 1.0 | 2.0 | 0.00 | 0.00 | 0.00 | 61 | 1048.5 |
| 20260505122739 | 41 | 204 | 0.0 | 0.0 | 0.00 | 0.00 | 0.00 | 64 | 1048.5 |
| 20260505122237 | 40 | 208 | 0.0 | 1.0 | 0.00 | 0.00 | 0.00 | 64 | 1048.5 |
| 20260505121733 | 39 | 208 | 1.0 | 1.0 | 0.00 | 0.00 | 0.00 | 65 | 1048.3 |
| 20260505121230 | 38 | 208 | 0.0 | 1.0 | 0.00 | 0.00 | 0.00 | 67 | 1048.2 |
| 20260505120726 | 37 | 209 | 0.0 | 0.0 | 0.00 | 0.00 | 0.00 | 68 | 1048.2 |
| 20260505120222 | 36 | 211 | 0.0 | 0.0 | 0.00 | 0.00 | 0.00 | 70 | 1048.1 |
| 20260505115721 | 36 | 208 | 0.0 | 0.0 | 0.00 | 0.00 | 0.00 | 72 | 1047.9 |
| 20260505115219 | 35 | 208 | 0.0 | 0.0 | 0.00 | 0.00 | 0.00 | 71 | 1048.0 |
| 20260505114716 | 35 | 209 | 0.0 | 0.0 | 0.00 | 0.00 | 0.00 | 72 | 1048.1 |
| 20260505114212 | 35 | 208 | 0.0 | 1.0 | 0.00 | 0.00 | 0.00 | 74 | 1047.9 |
| 20260505113709 | 34 | 208 | 0.0 | 1.0 | 0.00 | 0.00 | 0.00 | 74 | 1047.7 |
| 20260505113206 | 34 | 208 | 0.0 | 0.0 | 0.00 | 0.00 | 0.00 | 77 | 1047.7 |
| 20260505112702 | 34 | 208 | 0.0 | 0.0 | 0.00 | 0.00 | 0.00 | 77 | 1047.5 |
| 20260505112200 | 34 | 208 | 0.0 | 0.0 | 0.00 | 0.00 | 0.00 | 76 | 1047.6 |
| 20260505111659 | 34 | 208 | 0.0 | 0.0 | 0.00 | 0.00 | 0.00 | 75 | 1047.5 |
| 20260505111155 | 34 | 212 | 1.0 | 1.0 | 0.00 | 0.00 | 0.00 | 74 | 1047.5 |
| 20260505110651 | 34 | 212 | 0.0 | 0.0 | 0.00 | 0.00 | 0.00 | 75 | 1047.3 |
| 20260505110149 | 34 | 212 | 0.0 | 0.0 | 0.00 | 0.00 | 0.00 | 76 | 1047.4 |
| 20260505102125 | 36 | 214 | 0.0 | 0.0 | 0.00 | 0.00 | 0.00 | 70 | 1046.4 |
| 20260505101623 | 36 | 218 | 0.0 | 0.0 | 0.00 | 0.00 | 0.00 | 69 | 1046.0 |
| 20260505101119 | 36 | 218 | 0.0 | 0.0 | 0.00 | 0.00 | 0.00 | 68 | 1046.3 |
| 20260505100615 | 36 | 218 | 0.0 | 0.0 | 0.00 | 0.00 | 0.00 | 67 | 1046.3 |
| 20260505100113 | 37 | 218 | 0.0 | 0.0 | 0.00 | 0.00 | 0.00 | 66 | 1046.3 |
| 20260505095609 | 38 | 218 | 0.0 | 0.0 | 0.00 | 0.00 | 0.00 | 64 | 1046.2 |
| 20260505095105 | 38 | 218 | 0.0 | 0.0 | 0.00 | 0.00 | 0.00 | 63 | 1046.0 |
| 20260505094602 | 39 | 218 | 0.0 | 1.0 | 0.00 | 0.00 | 0.00 | 62 | 1046.2 |
| 20260505094058 | 39 | 218 | 0.0 | 0.0 | 0.00 | 0.00 | 0.00 | 62 | 1046.2 |
| 20260505093554 | 39 | 220 | 0.0 | 1.0 | 0.00 | 0.00 | 0.00 | 61 | 1046.3 |
| 20260505093052 | 39 | 205 | 1.0 | 1.0 | 0.00 | 0.00 | 0.00 | 61 | 1046.2 |
| 20260505092549 | 40 | 232 | 0.0 | 1.0 | 0.00 | 0.00 | 0.00 | 60 | 1045.8 |
| 20260505092048 | 40 | 263 | 1.0 | 1.0 | 0.00 | 0.00 | 0.00 | 60 | 1045.8 |
| 20260505091544 | 40 | 229 | 0.0 | 1.0 | 0.00 | 0.00 | 0.00 | 58 | 1045.7 |
| 20260505091042 | 41 | 259 | 1.0 | 2.0 | 0.00 | 0.00 | 0.00 | 58 | 1045.7 |
| 20260505090540 | 40 | 228 | 0.0 | 2.0 | 0.00 | 0.00 | 0.00 | 59 | 1045.8 |
| 20260505090038 | 41 | 228 | 0.0 | 0.0 | 0.00 | 0.00 | 0.00 | 58 | 1045.8 |
| 20260505085535 | 41 | 217 | 0.0 | 1.0 | 0.00 | 0.00 | 0.00 | 58 | 1045.6 |
| 20260505085033 | 41 | 224 | 0.0 | 1.0 | 0.00 | 0.00 | 0.00 | 57 | 1045.8 |
| 20260505084531 | 41 | 221 | 1.0 | 3.0 | 0.00 | 0.00 | 0.00 | 56 | 1046.0 |
| 20260505084029 | 41 | 195 | 1.0 | 2.0 | 0.00 | 0.00 | 0.00 | 56 | 1045.9 |
| 20260505083526 | 41 | 205 | 1.0 | 1.0 | 0.00 | 0.00 | 0.00 | 56 | 1045.8 |
| 20260505083022 | 41 | 193 | 0.0 | 1.0 | 0.00 | 0.00 | 0.00 | 55 | 1045.8 |
| 20260505082518 | 42 | 271 | 0.0 | 2.0 | 0.00 | 0.00 | 0.00 | 55 | 1045.8 |
| 20260505082015 | 42 | 216 | 1.0 | 1.0 | 0.00 | 0.00 | 0.00 | 57 | 1045.7 |
| 20260505081512 | 42 | 210 | 1.0 | 1.0 | 0.00 | 0.00 | 0.00 | 56 | 1045.6 |
| 20260505081008 | 42 | 180 | 1.0 | 2.0 | 0.00 | 0.00 | 0.00 | 56 | 1045.6 |
| 20260505080505 | 42 | 211 | 0.0 | 1.0 | 0.00 | 0.00 | 0.00 | 55 | 1045.6 |
| 20260505080000 | 42 | 174 | 1.0 | 1.0 | 0.00 | 0.00 | 0.00 | 55 | 1045.4 |
| 20260505075457 | 42 | 217 | 1.0 | 1.0 | 0.00 | 0.00 | 0.00 | 54 | 1045.5 |
| 20260505074954 | 43 | 179 | 1.0 | 2.0 | 0.00 | 0.00 | 0.00 | 54 | 1045.3 |
| 20260505074452 | 43 | 240 | 1.0 | 2.0 | 0.00 | 0.00 | 0.00 | 54 | 1045.2 |
| 20260505073949 | 43 | 213 | 1.0 | 2.0 | 0.00 | 0.00 | 0.00 | 53 | 1045.3 |
| 20260505073446 | 43 | 248 | 1.0 | 2.0 | 0.00 | 0.00 | 0.00 | 54 | 1045.2 |
| 20260505072943 | 43 | 247 | 0.0 | 0.0 | 0.00 | 0.00 | 0.00 | 53 | 1045.2 |
| 20260505072440 | 43 | 231 | 1.0 | 2.0 | 0.00 | 0.00 | 0.00 | 53 | 1045.2 |
| 20260505071936 | 43 | 190 | 0.0 | 2.0 | 0.00 | 0.00 | 0.00 | 53 | 1045.1 |
| 20260505071432 | 44 | 239 | 0.0 | 2.0 | 0.00 | 0.00 | 0.00 | 53 | 1045.2 |
| 20260505070930 | 44 | 314 | 0.0 | 2.0 | 0.00 | 0.00 | 0.00 | 52 | 1045.2 |
| 20260505070426 | 44 | 289 | 1.0 | 2.0 | 0.00 | 0.00 | 0.00 | 51 | 1045.1 |
| 20260505065922 | 44 | 288 | 1.0 | 2.0 | 0.00 | 0.00 | 0.00 | 52 | 1045.0 |
| 20260505065419 | 44 | 181 | 0.0 | 2.0 | 0.00 | 0.00 | 0.00 | 51 | 1045.0 |
| 20260505064916 | 44 | 205 | 0.0 | 1.0 | 0.00 | 0.00 | 0.00 | 52 | 1045.1 |
| 20260505064413 | 44 | 296 | 0.0 | 1.0 | 0.00 | 0.00 | 0.00 | 51 | 1045.3 |
| 20260505063911 | 44 | 313 | 2.0 | 2.0 | 0.00 | 0.00 | 0.00 | 51 | 1045.3 |
| 20260505063407 | 44 | 214 | 1.0 | 3.0 | 0.00 | 0.00 | 0.00 | 51 | 1045.2 |
| 20260505062904 | 44 | 206 | 1.0 | 2.0 | 0.00 | 0.00 | 0.00 | 50 | 1045.2 |
| 20260505062401 | 44 | 194 | 0.0 | 2.0 | 0.00 | 0.00 | 0.00 | 52 | 1045.0 |
| 20260505061857 | 44 | 262 | 2.0 | 3.0 | 0.00 | 0.00 | 0.00 | 51 | 1045.0 |
| 20260505061356 | 44 | 251 | 0.0 | 1.0 | 0.00 | 0.00 | 0.00 | 51 | 1044.9 |
| 20260505060853 | 44 | 196 | 1.0 | 1.0 | 0.00 | 0.00 | 0.00 | 50 | 1045.0 |
| 20260505060350 | 44 | 277 | 0.0 | 2.0 | 0.00 | 0.00 | 0.00 | 51 | 1045.1 |
| 20260505055846 | 44 | 271 | 2.0 | 2.0 | 0.00 | 0.00 | 0.00 | 50 | 1045.1 |
| 20260505055342 | 44 | 252 | 1.0 | 2.0 | 0.00 | 0.00 | 0.00 | 51 | 1045.0 |
| 20260505054839 | 44 | 210 | 0.0 | 1.0 | 0.00 | 0.00 | 0.00 | 51 | 1045.0 |
| 20260505054337 | 44 | 212 | 1.0 | 1.0 | 0.00 | 0.00 | 0.00 | 52 | 1045.0 |
| 20260505053835 | 44 | 198 | 0.0 | 1.0 | 0.00 | 0.00 | 0.00 | 52 | 1045.0 |
| 20260505053331 | 45 | 218 | 1.0 | 1.0 | 0.00 | 0.00 | 0.00 | 51 | 1045.0 |
| 20260505052828 | 45 | 206 | 1.0 | 1.0 | 0.00 | 0.00 | 0.00 | 50 | 1045.0 |
| 20260505052325 | 45 | 200 | 1.0 | 2.0 | 0.00 | 0.00 | 0.00 | 51 | 1045.0 |
| 20260505051822 | 45 | 230 | 1.0 | 2.0 | 0.00 | 0.00 | 0.00 | 50 | 1045.1 |
| 20260505051319 | 46 | 195 | 1.0 | 3.0 | 0.00 | 0.00 | 0.00 | 49 | 1045.0 |
| 20260505050817 | 46 | 278 | 1.0 | 2.0 | 0.00 | 0.00 | 0.00 | 49 | 1045.0 |
| 20260505050316 | 46 | 301 | 1.0 | 2.0 | 0.00 | 0.00 | 0.00 | 50 | 1045.0 |
| 20260505041746 | 48 | 85 | 1.0 | 6.0 | 0.00 | 0.00 | 0.00 | 48 | 1045.0 |
| 20260505041243 | 48 | 191 | 2.0 | 2.0 | 0.00 | 0.00 | 0.00 | 48 | 1045.1 |
| 20260505040740 | 48 | 72 | 2.0 | 4.0 | 0.00 | 0.00 | 0.00 | 48 | 1045.1 |
| 20260505040237 | 48 | 282 | 2.0 | 4.0 | 0.00 | 0.00 | 0.00 | 48 | 1045.0 |
| 20260505035734 | 48 | 272 | 2.0 | 3.0 | 0.00 | 0.00 | 0.00 | 49 | 1045.2 |
| 20260505035230 | 48 | 261 | 1.0 | 2.0 | 0.00 | 0.00 | 0.00 | 48 | 1044.9 |
| 20260505034727 | 48 | 273 | 3.0 | 4.0 | 0.00 | 0.00 | 0.00 | 48 | 1044.9 |
| 20260505034224 | 48 | 297 | 2.0 | 6.0 | 0.00 | 0.00 | 0.00 | 48 | 1045.1 |
| 20260505033720 | 48 | 333 | 3.0 | 4.0 | 0.00 | 0.00 | 0.00 | 47 | 1045.1 |
| 20260505033219 | 49 | 139 | 2.0 | 6.0 | 0.00 | 0.00 | 0.00 | 47 | 1045.1 |
| 20260505032716 | 49 | 264 | 4.0 | 8.0 | 0.00 | 0.00 | 0.00 | 46 | 1045.0 |
| 20260505032207 | 49 | 14 | 4.0 | 7.0 | 0.00 | 0.00 | 0.00 | 47 | 1044.9 |
| 20260505031704 | 49 | 280 | 4.0 | 7.0 | 0.00 | 0.00 | 0.00 | 46 | 1045.0 |
| 20260505031200 | 50 | 321 | 2.0 | 4.0 | 0.00 | 0.00 | 0.00 | 46 | 1044.9 |
| 20260505030657 | 50 | 349 | 5.0 | 8.0 | 0.00 | 0.00 | 0.00 | 46 | 1044.7 |
| 20260505030153 | 50 | 201 | 3.0 | 8.0 | 0.00 | 0.00 | 0.00 | 45 | 1044.7 |
| 20260505025649 | 50 | 314 | 2.0 | 4.0 | 0.00 | 0.00 | 0.00 | 45 | 1044.4 |
| 20260505025148 | 50 | 328 | 4.0 | 6.0 | 0.00 | 0.00 | 0.00 | 44 | 1044.6 |
| 20260505024645 | 50 | 294 | 1.0 | 3.0 | 0.00 | 0.00 | 0.00 | 44 | 1044.4 |
| 20260505024142 | 50 | 6 | 4.0 | 7.0 | 0.00 | 0.00 | 0.00 | 43 | 1044.2 |
| 20260505023640 | 50 | 293 | 2.0 | 4.0 | 0.00 | 0.00 | 0.00 | 44 | 1044.1 |
| 20260505023137 | 50 | 337 | 4.0 | 6.0 | 0.00 | 0.00 | 0.00 | 45 | 1043.9 |
| 20260505022634 | 51 | 291 | 3.0 | 7.0 | 0.00 | 0.00 | 0.00 | 45 | 1044.0 |
| 20260505022131 | 51 | 338 | 2.0 | 3.0 | 0.00 | 0.00 | 0.00 | 44 | 1043.9 |
| 20260505021628 | 51 | 296 | 2.0 | 6.0 | 0.00 | 0.00 | 0.00 | 44 | 1043.9 |
| 20260505021125 | 51 | 211 | 2.0 | 7.0 | 0.00 | 0.00 | 0.00 | 44 | 1043.6 |
| 20260505020620 | 51 | 356 | 2.0 | 7.0 | 0.00 | 0.00 | 0.00 | 44 | 1043.5 |
| 20260505020116 | 51 | 262 | 3.0 | 4.0 | 0.00 | 0.00 | 0.00 | 45 | 1043.4 |
| 20260505015614 | 51 | 232 | 2.0 | 7.0 | 0.00 | 0.00 | 0.00 | 45 | 1043.3 |
| 20260505015110 | 51 | 229 | 2.0 | 8.0 | 0.00 | 0.00 | 0.00 | 46 | 1043.2 |
| 20260505014606 | 52 | 284 | 3.0 | 4.0 | 0.00 | 0.00 | 0.00 | 46 | 1043.0 |
| 20260505014103 | 52 | 295 | 1.0 | 3.0 | 0.00 | 0.00 | 0.00 | 46 | 1042.9 |
| 20260505013601 | 52 | 293 | 2.0 | 7.0 | 0.00 | 0.00 | 0.00 | 45 | 1042.8 |
| 20260505013058 | 52 | 322 | 4.0 | 7.0 | 0.00 | 0.00 | 0.00 | 45 | 1042.8 |
| 20260505012556 | 53 | 218 | 3.0 | 10.0 | 0.00 | 0.00 | 0.00 | 45 | 1042.6 |
| 20260505012053 | 53 | 346 | 5.0 | 8.0 | 0.00 | 0.00 | 0.00 | 45 | 1042.6 |
| 20260505011548 | 53 | 262 | 7.0 | 10.0 | 0.00 | 0.00 | 0.00 | 45 | 1042.5 |
| 20260505011046 | 53 | 269 | 1.0 | 9.0 | 0.00 | 0.00 | 0.00 | 45 | 1042.3 |
| 20260505010541 | 54 | 321 | 6.0 | 9.0 | 0.00 | 0.00 | 0.00 | 44 | 1042.3 |
| 20260505010038 | 54 | 317 | 3.0 | 6.0 | 0.00 | 0.00 | 0.00 | 44 | 1042.1 |
| 20260505005534 | 55 | 274 | 2.0 | 14.0 | 0.00 | 0.00 | 0.00 | 43 | 1042.0 |
| 20260505005032 | 55 | 315 | 2.0 | 15.0 | 0.00 | 0.00 | 0.00 | 43 | 1041.9 |
| 20260505004529 | 56 | 285 | 6.0 | 10.0 | 0.00 | 0.00 | 0.00 | 42 | 1041.8 |
| 20260505004025 | 56 | 325 | 6.0 | 8.0 | 0.00 | 0.00 | 0.00 | 42 | 1041.5 |
| 20260505003522 | 57 | 257 | 4.0 | 8.0 | 0.00 | 0.00 | 0.00 | 41 | 1041.4 |
| 20260505003020 | 57 | 290 | 3.0 | 8.0 | 0.00 | 0.00 | 0.00 | 41 | 1041.3 |
| 20260505002515 | 57 | 14 | 3.0 | 8.0 | 0.00 | 0.00 | 0.00 | 40 | 1041.2 |
| 20260505002014 | 57 | 298 | 1.0 | 7.0 | 0.00 | 0.00 | 0.00 | 40 | 1041.1 |
| 20260505001511 | 57 | 324 | 6.0 | 8.0 | 0.00 | 0.00 | 0.00 | 40 | 1041.0 |
| 20260505001008 | 58 | 302 | 9.0 | 11.0 | 0.00 | 0.00 | 0.00 | 39 | 1041.1 |
| 20260505000505 | 58 | 178 | 4.0 | 9.0 | 0.00 | 0.00 | 0.00 | 40 | 1041.0 |
| 20260505000002 | 58 | 295 | 5.0 | 10.0 | 0.00 | 0.00 | 0.00 | 39 | 1041.0 |
| 20260504235459 | 58 | 301 | 6.0 | 9.0 | 0.00 | 0.00 | 0.00 | 39 | 1041.2 |
| 20260504234956 | 58 | 243 | 1.0 | 8.0 | 0.00 | 0.00 | 0.00 | 40 | 1041.0 |
| 20260504234453 | 58 | 2 | 6.0 | 8.0 | 0.00 | 0.00 | 0.00 | 38 | 1040.9 |
| 20260504233949 | 59 | 311 | 4.0 | 11.0 | 0.00 | 0.00 | 0.00 | 38 | 1040.8 |
| 20260504233445 | 59 | 321 | 5.0 | 9.0 | 0.00 | 0.00 | 0.00 | 37 | 1041.0 |
| 20260504232942 | 59 | 190 | 2.0 | 8.0 | 0.00 | 0.00 | 0.00 | 38 | 1040.9 |
| 20260504232439 | 59 | 309 | 6.0 | 11.0 | 0.00 | 0.00 | 0.00 | 36 | 1041.0 |
| 20260504231937 | 59 | 278 | 4.0 | 9.0 | 0.00 | 0.00 | 0.00 | 35 | 1041.0 |
| 20260504231433 | 60 | 234 | 6.0 | 7.0 | 0.00 | 0.00 | 0.00 | 35 | 1041.3 |
| 20260504230929 | 60 | 251 | 4.0 | 8.0 | 0.00 | 0.00 | 0.00 | 35 | 1041.0 |
| 20260504230426 | 60 | 320 | 5.0 | 14.0 | 0.00 | 0.00 | 0.00 | 36 | 1041.1 |
| 20260504225925 | 61 | 262 | 5.0 | 10.0 | 0.00 | 0.00 | 0.00 | 34 | 1041.0 |
| 20260504225421 | 61 | 327 | 2.0 | 4.0 | 0.00 | 0.00 | 0.00 | 35 | 1040.9 |
| 20260504224919 | 60 | 305 | 6.0 | 13.0 | 0.00 | 0.00 | 0.00 | 34 | 1041.0 |
| 20260504224415 | 61 | 288 | 9.0 | 14.0 | 0.00 | 0.00 | 0.00 | 34 | 1040.7 |
| 20260504223913 | 61 | 323 | 3.0 | 8.0 | 0.00 | 0.00 | 0.00 | 35 | 1040.7 |
| 20260504223408 | 61 | 198 | 5.0 | 8.0 | 0.00 | 0.00 | 0.00 | 34 | 1040.5 |
| 20260504222904 | 61 | 318 | 9.0 | 15.0 | 0.00 | 0.00 | 0.00 | 34 | 1040.5 |
| 20260504222401 | 61 | 240 | 9.0 | 13.0 | 0.00 | 0.00 | 0.00 | 34 | 1040.4 |
| 20260504221900 | 61 | 258 | 9.0 | 14.0 | 0.00 | 0.00 | 0.00 | 33 | 1040.3 |
| 20260504221356 | 61 | 278 | 10.0 | 14.0 | 0.00 | 0.00 | 0.00 | 34 | 1040.3 |
| 20260504220853 | 62 | 273 | 9.0 | 14.0 | 0.00 | 0.00 | 0.00 | 34 | 1040.3 |
| 20260504220350 | 62 | 335 | 6.0 | 16.0 | 0.00 | 0.00 | 0.00 | 33 | 1039.9 |
| 20260504215847 | 62 | 203 | 4.0 | 9.0 | 0.00 | 0.00 | 0.00 | 33 | 1040.0 |
| 20260504215343 | 62 | 322 | 7.0 | 13.0 | 0.00 | 0.00 | 0.00 | 33 | 1039.7 |
| 20260504214839 | 63 | 291 | 12.0 | 18.0 | 0.00 | 0.00 | 0.00 | 31 | 1039.7 |
| 20260504214337 | 63 | 203 | 6.0 | 9.0 | 0.00 | 0.00 | 0.00 | 30 | 1039.5 |
| 20260504213833 | 63 | 294 | 4.0 | 9.0 | 0.00 | 0.00 | 0.00 | 32 | 1039.6 |
| 20260504213329 | 63 | 292 | 6.0 | 16.0 | 0.00 | 0.00 | 0.00 | 31 | 1039.7 |
| 20260504212827 | 63 | 332 | 7.0 | 9.0 | 0.00 | 0.00 | 0.00 | 32 | 1039.5 |
| 20260504212323 | 63 | 291 | 6.0 | 10.0 | 0.00 | 0.00 | 0.00 | 33 | 1039.4 |
| 20260504211821 | 63 | 320 | 5.0 | 9.0 | 0.00 | 0.00 | 0.00 | 36 | 1039.5 |
| 20260504211316 | 63 | 266 | 6.0 | 10.0 | 0.00 | 0.00 | 0.00 | 38 | 1039.3 |
| 20260504210814 | 64 | 339 | 4.0 | 7.0 | 0.00 | 0.00 | 0.00 | 36 | 1039.4 |
| 20260504210311 | 65 | 322 | 4.0 | 8.0 | 0.00 | 0.00 | 0.00 | 38 | 1039.4 |
| 20260504205808 | 65 | 317 | 4.0 | 8.0 | 0.00 | 0.00 | 0.00 | 37 | 1039.5 |
| 20260504205306 | 65 | 285 | 4.0 | 6.0 | 0.00 | 0.00 | 0.00 | 37 | 1039.6 |
| 20260504204804 | 65 | 324 | 4.0 | 6.0 | 0.00 | 0.00 | 0.00 | 38 | 1039.4 |
| 20260504204302 | 65 | 357 | 1.0 | 7.0 | 0.00 | 0.00 | 0.00 | 35 | 1039.4 |
| 20260504203801 | 65 | 304 | 4.0 | 10.0 | 0.00 | 0.00 | 0.00 | 38 | 1039.4 |
| 20260504203258 | 66 | 313 | 4.0 | 10.0 | 0.00 | 0.00 | 0.00 | 35 | 1039.3 |
| 20260504202758 | 66 | 42 | 3.0 | 9.0 | 0.00 | 0.00 | 0.00 | 34 | 1039.2 |
| 20260504202255 | 67 | 344 | 4.0 | 11.0 | 0.00 | 0.00 | 0.00 | 35 | 1039.1 |
| 20260504201752 | 68 | 295 | 5.0 | 9.0 | 0.00 | 0.00 | 0.00 | 33 | 1039.1 |
| 20260504201249 | 67 | 304 | 4.0 | 8.0 | 0.00 | 0.00 | 0.00 | 33 | 1039.0 |
| 20260504200748 | 67 | 249 | 4.0 | 7.0 | 0.00 | 0.00 | 0.00 | 35 | 1038.9 |
| 20260504200243 | 67 | 323 | 5.0 | 10.0 | 0.00 | 0.00 | 0.00 | 34 | 1039.0 |
| 20260504195740 | 67 | 271 | 7.0 | 11.0 | 0.00 | 0.00 | 0.00 | 32 | 1039.0 |
| 20260504195236 | 68 | 332 | 8.0 | 16.0 | 0.00 | 0.00 | 0.00 | 34 | 1039.1 |
| 20260504194733 | 67 | 208 | 4.0 | 11.0 | 0.00 | 0.00 | 0.00 | 33 | 1038.9 |
| 20260504194229 | 67 | 284 | 5.0 | 17.0 | 0.00 | 0.00 | 0.00 | 33 | 1038.9 |
| 20260504193726 | 67 | 339 | 6.0 | 8.0 | 0.00 | 0.00 | 0.00 | 34 | 1038.9 |
| 20260504193224 | 67 | 255 | 10.0 | 11.0 | 0.00 | 0.00 | 0.00 | 32 | 1038.8 |
| 20260504192722 | 68 | 254 | 3.0 | 10.0 | 0.00 | 0.00 | 0.00 | 33 | 1038.7 |
| 20260504192220 | 68 | 313 | 3.0 | 9.0 | 0.00 | 0.00 | 0.00 | 34 | 1038.9 |
| 20260504191718 | 67 | 344 | 5.0 | 6.0 | 0.00 | 0.00 | 0.00 | 34 | 1038.7 |
| 20260504191215 | 66 | 319 | 4.0 | 10.0 | 0.00 | 0.00 | 0.00 | 35 | 1038.7 |
| 20260504190710 | 67 | 302 | 8.0 | 9.0 | 0.00 | 0.00 | 0.00 | 35 | 1038.7 |
| 20260504190206 | 68 | 280 | 3.0 | 11.0 | 0.00 | 0.00 | 0.00 | 36 | 1038.5 |
| 20260504185702 | 67 | 355 | 4.0 | 7.0 | 0.00 | 0.00 | 0.00 | 35 | 1038.5 |
| 20260504185159 | 67 | 300 | 6.0 | 16.0 | 0.00 | 0.00 | 0.00 | 35 | 1038.3 |
| 20260504184655 | 68 | 310 | 4.0 | 10.0 | 0.00 | 0.00 | 0.00 | 35 | 1038.3 |
| 20260504184150 | 69 | 298 | 8.0 | 10.0 | 0.00 | 0.00 | 0.00 | 33 | 1038.3 |
| 20260504183647 | 69 | 339 | 3.0 | 6.0 | 0.00 | 0.00 | 0.00 | 34 | 1038.1 |
| 20260504183144 | 69 | 247 | 5.0 | 9.0 | 0.00 | 0.00 | 0.00 | 34 | 1038.2 |
| 20260504182642 | 70 | 252 | 3.0 | 6.0 | 0.00 | 0.00 | 0.00 | 35 | 1038.0 |
| 20260504182139 | 70 | 318 | 3.0 | 9.0 | 0.00 | 0.00 | 0.00 | 33 | 1038.1 |
| 20260504181637 | 69 | 298 | 4.0 | 6.0 | 0.00 | 0.00 | 0.00 | 36 | 1038.2 |